This is the latest recevied weather packets stored in our database for station/object CE7LGA-10. If no packets are shown the sender has not sent any weather packets the latest 10 day(s).
| Time | Temp. | Humidity | Pressure | Rain* | Wind** | Luminosity | Snow |
|---|---|---|---|---|---|---|---|
| 1777657931 | 16.11° C | 68% | 1013.3 hPa | - | - | - | - |
| 1777657030 | 15.56° C | 66% | 1013.2 hPa | - | - | - | - |
| 1777656130 | 16.11° C | 66% | 1012.9 hPa | - | - | - | - |
| 1777655230 | 15.56° C | 66% | 1012.8 hPa | - | - | - | - |
| 1777654330 | 15.56° C | 67% | 1012.9 hPa | - | - | - | - |
| 1777653430 | 15.56° C | 67% | 1012.8 hPa | - | - | - | - |
| 1777652530 | 15.56° C | 67% | 1012.7 hPa | - | - | - | - |
| 1777651630 | 15.56° C | 67% | 1012.7 hPa | - | - | - | - |
| 1777650730 | 15° C | 66% | 1012.5 hPa | - | - | - | - |
| 1777649830 | 15° C | 67% | 1012.2 hPa | - | - | - | - |
| 1777648930 | 15° C | 67% | 1012 hPa | - | - | - | - |
| 1777648030 | 14.44° C | 68% | 1011.9 hPa | - | - | - | - |
| 1777647130 | 14.44° C | 69% | 1011.7 hPa | - | - | - | - |
| 1777646229 | 13.89° C | 70% | 1011.6 hPa | - | - | - | - |
| 1777645329 | 13.33° C | 72% | 1011.5 hPa | - | - | - | - |
| 1777644429 | 12.78° C | 73% | 1011.3 hPa | - | - | - | - |
| 1777643529 | 12.22° C | 72% | 1011.2 hPa | - | - | - | - |
| 1777642629 | 11.67° C | 72% | 1011.1 hPa | - | - | - | - |
| 1777641729 | 11.67° C | 69% | 1010.9 hPa | - | - | - | - |
| 1777640829 | 11.67° C | 70% | 1010.6 hPa | - | - | - | - |
| 1777639928 | 11.67° C | 70% | 1010.3 hPa | - | - | - | - |
| 1777639032 | 11.67° C | 69% | 1010 hPa | - | - | - | - |
| 1777638132 | 11.67° C | 69% | 1009.5 hPa | - | - | - | - |
| 1777637232 | 11.67° C | 70% | 1009.1 hPa | - | - | - | - |
| 1777636332 | 11.11° C | 70% | 1008.7 hPa | - | - | - | - |
* Rain since midnight (hover to see other rain measurements)
** Current wind speed in m/s (hover to see current wind gust speed)